TimeMST,TemperatureF,Dew PointF,Humidity,Sea Level PressureIn,VisibilityMPH,Wind Direction,Wind SpeedMPH,Gust SpeedMPH,PrecipitationIn,Events,Conditions,WindDirDegrees,DateUTC
12:15 AM,15.8,8.6,73,30.00,10.0,Calm,Calm,-,N/A,,Clear,0,2013-01-10 07:15:00
12:35 AM,15.8,10.4,79,29.99,10.0,Calm,Calm,-,N/A,,Clear,0,2013-01-10 07:35:00
12:55 AM,15.8,10.4,79,29.99,10.0,Calm,Calm,-,N/A,,Clear,0,2013-01-10 07:55:00
1:15 AM,15.8,8.6,73,29.99,10.0,Calm,Calm,-,N/A,,Clear,0,2013-01-10 08:15:00
1:35 AM,14.0,6.8,73,29.97,10.0,Calm,Calm,-,N/A,,Clear,0,2013-01-10 08:35:00
1:55 AM,14.0,8.6,79,29.96,10.0,Calm,Calm,-,N/A,,Clear,0,2013-01-10 08:55:00
2:15 AM,12.2,8.6,85,29.96,10.0,NW,9.2,-,N/A,,Clear,310,2013-01-10 09:15:00
2:35 AM,14.0,8.6,79,29.94,10.0,NW,9.2,-,N/A,,Clear,310,2013-01-10 09:35:00
2:55 AM,15.8,8.6,73,29.93,10.0,NW,8.1,-,N/A,,Clear,310,2013-01-10 09:55:00
3:15 AM,15.8,8.6,73,29.92,10.0,WNW,6.9,-,N/A,,Clear,300,2013-01-10 10:15:00
3:35 AM,15.8,8.6,73,29.91,10.0,NW,6.9,-,N/A,,Clear,320,2013-01-10 10:35:00
3:55 AM,15.8,8.6,73,29.90,10.0,NW,9.2,-,N/A,,Clear,310,2013-01-10 10:55:00
4:15 AM,15.8,8.6,73,29.88,10.0,WNW,8.1,-,N/A,,Clear,300,2013-01-10 11:15:00
4:35 AM,15.8,8.6,73,29.87,10.0,NW,5.8,-,N/A,,Clear,310,2013-01-10 11:35:00
4:55 AM,14.0,8.6,79,29.86,10.0,Calm,Calm,-,N/A,,Clear,0,2013-01-10 11:55:00
5:35 AM,14.0,8.6,79,29.85,10.0,Calm,Calm,-,N/A,,Clear,0,2013-01-10 12:35:00
5:55 AM,14.0,8.6,79,29.85,10.0,Calm,Calm,-,N/A,,Clear,0,2013-01-10 12:55:00
6:35 AM,12.2,6.8,79,29.83,10.0,Calm,Calm,-,N/A,,Clear,0,2013-01-10 13:35:00
6:55 AM,12.2,6.8,79,29.83,10.0,Calm,Calm,-,N/A,,Clear,0,2013-01-10 13:55:00
7:15 AM,12.2,6.8,79,29.83,10.0,Calm,Calm,-,N/A,,Clear,0,2013-01-10 14:15:00
7:35 AM,12.2,8.6,85,29.82,10.0,Calm,Calm,-,N/A,,Clear,0,2013-01-10 14:35:00
8:15 AM,15.8,10.4,79,29.81,10.0,Calm,Calm,-,N/A,,Clear,0,2013-01-10 15:15:00
8:35 AM,17.6,12.2,79,29.81,10.0,Calm,Calm,-,N/A,,Clear,0,2013-01-10 15:35:00
9:15 AM,21.2,14.0,74,29.80,10.0,Calm,Calm,-,N/A,,Unknown,0,2013-01-10 16:15:00
9:35 AM,23.0,15.8,74,29.79,10.0,Calm,Calm,-,N/A,,Clear,0,2013-01-10 16:35:00
9:55 AM,24.8,15.8,69,29.77,10.0,Calm,Calm,-,N/A,,Clear,0,2013-01-10 16:55:00
10:15 AM,26.6,15.8,64,29.77,10.0,Calm,Calm,-,N/A,,Clear,0,2013-01-10 17:15:00
10:35 AM,26.6,17.6,69,29.76,10.0,Calm,Calm,-,N/A,,Clear,0,2013-01-10 17:35:00
10:55 AM,28.4,17.6,64,29.73,10.0,Calm,Calm,-,N/A,,Clear,0,2013-01-10 17:55:00
11:15 AM,30.2,17.6,60,29.71,10.0,Calm,Calm,-,N/A,,Clear,0,2013-01-10 18:15:00
11:35 AM,32.0,19.4,60,29.70,10.0,Calm,Calm,-,N/A,,Clear,0,2013-01-10 18:35:00
11:55 AM,33.8,19.4,56,29.68,10.0,Calm,Calm,-,N/A,,Clear,0,2013-01-10 18:55:00
12:35 PM,35.6,21.2,56,29.65,10.0,West,5.8,-,N/A,,Clear,270,2013-01-10 19:35:00
12:55 PM,35.6,21.2,56,29.64,10.0,WNW,5.8,-,N/A,,Clear,300,2013-01-10 19:55:00
1:15 PM,37.4,21.2,52,29.64,10.0,West,5.8,-,N/A,,Clear,280,2013-01-10 20:15:00
1:35 PM,37.4,21.2,52,29.63,10.0,WSW,5.8,-,N/A,,Clear,240,2013-01-10 20:35:00
1:55 PM,37.4,21.2,52,29.62,10.0,WSW,4.6,-,N/A,,Clear,240,2013-01-10 20:55:00
2:35 PM,37.4,21.2,52,29.61,10.0,Calm,Calm,-,N/A,,Clear,0,2013-01-10 21:35:00
2:55 PM,35.6,21.2,56,29.60,10.0,Calm,Calm,-,N/A,,Clear,0,2013-01-10 21:55:00
3:15 PM,37.4,21.2,52,29.60,10.0,SW,8.1,-,N/A,,Clear,230,2013-01-10 22:15:00
3:35 PM,35.6,21.2,56,29.59,7.0,WSW,5.8,-,N/A,,Clear,240,2013-01-10 22:35:00
3:55 PM,35.6,21.2,56,29.58,10.0,Calm,Calm,-,N/A,,Clear,0,2013-01-10 22:55:00
4:15 PM,33.8,21.2,60,29.57,10.0,Calm,Calm,-,N/A,,Clear,0,2013-01-10 23:15:00
4:35 PM,33.8,21.2,60,29.56,10.0,NNW,9.2,-,N/A,,Clear,330,2013-01-10 23:35:00
5:15 PM,30.2,19.4,64,29.57,10.0,South,3.5,-,N/A,,Clear,180,2013-01-11 00:15:00
5:35 PM,28.4,19.4,69,29.57,10.0,South,3.5,-,N/A,,Clear,170,2013-01-11 00:35:00
5:55 PM,28.4,19.4,69,29.55,10.0,Calm,Calm,-,N/A,,Clear,0,2013-01-11 00:55:00
6:15 PM,26.6,19.4,74,29.55,10.0,Calm,Calm,-,N/A,,Clear,0,2013-01-11 01:15:00
6:35 PM,26.6,19.4,74,29.54,10.0,Calm,Calm,-,N/A,,Clear,0,2013-01-11 01:35:00
6:55 PM,24.8,17.6,74,29.52,10.0,NNW,3.5,-,N/A,,Clear,340,2013-01-11 01:55:00
7:15 PM,24.8,17.6,74,29.53,10.0,Calm,Calm,-,N/A,,Clear,0,2013-01-11 02:15:00
7:35 PM,24.8,15.8,69,29.52,10.0,West,6.9,-,N/A,,Clear,280,2013-01-11 02:35:00
7:55 PM,26.6,17.6,69,29.52,10.0,WNW,6.9,-,N/A,,Clear,290,2013-01-11 02:55:00
8:15 PM,24.8,17.6,74,29.51,10.0,SW,4.6,-,N/A,,Clear,230,2013-01-11 03:15:00
8:35 PM,23.0,15.8,74,29.51,10.0,Calm,Calm,-,N/A,,Clear,0,2013-01-11 03:35:00
8:55 PM,21.2,15.8,80,29.49,10.0,Calm,Calm,-,N/A,,Clear,0,2013-01-11 03:55:00
9:15 PM,21.2,15.8,80,29.49,10.0,Calm,Calm,-,N/A,,Clear,0,2013-01-11 04:15:00
9:35 PM,21.2,15.8,80,29.47,10.0,ESE,6.9,-,N/A,,Clear,110,2013-01-11 04:35:00
9:55 PM,21.2,15.8,80,29.48,10.0,West,5.8,-,N/A,,Clear,260,2013-01-11 04:55:00
10:35 PM,19.4,12.2,74,29.46,10.0,Calm,Calm,-,N/A,,Clear,0,2013-01-11 05:35:00
10:55 PM,17.6,12.2,79,29.46,10.0,North,6.9,-,N/A,,Clear,360,2013-01-11 05:55:00
11:35 PM,17.6,12.2,79,29.44,10.0,Calm,Calm,-,N/A,,Clear,0,2013-01-11 06:35:00
11:55 PM,17.6,10.4,73,29.45,10.0,Calm,Calm,-,N/A,,Clear,0,2013-01-11 06:55:00